Weather reports worldwide

Advertisment
St.Bees Head, United Kingdom (3210): temperature & dewpoint: 02.07.2020 04:00:00 - 08.07.2020 04:00:00 (BST)St.Bees Head, United Kingdom (3210): temperature -20cm & temperature -100cm: 02.07.2020 04:00:00 - 08.07.2020 04:00:00 (BST)St.Bees Head, United Kingdom (3210): wind speed & gusts: 02.07.2020 04:00:00 - 08.07.2020 04:00:00 (BST)St.Bees Head, United Kingdom (3210): wind direction: 02.07.2020 04:00:00 - 08.07.2020 04:00:00 (BST)St.Bees Head, United Kingdom (3210): reduced air pressure: 02.07.2020 04:00:00 - 08.07.2020 04:00:00 (BST)St.Bees Head, United Kingdom (3210): visibility: 02.07.2020 04:00:00 - 08.07.2020 04:00:00 (BST)St.Bees Head, United Kingdom (3210): precipitation: 02.07.2020 04:00:00 - 08.07.2020 04:00:00 (BST)
Date & Time tt [°C] td [°C] tt -20cm [°C] tt -100cm [°C] ff [km/h] ff [kn] fx [km/h] fx [kn] dd ppp [hPa] vv [km] rr [mm]
08.07.2020 04:00:00 9,5 7,5 - - 16 9 - - NE 1013,9 27 0,0
08.07.2020 03:00:00 10,2 7,9 - - 15 8 - - NE 1014,0 27 0,0
08.07.2020 02:00:00 10,8 8,8 - - 13 7 - - NNE 1014,5 25 0,0
08.07.2020 01:00:00 10,8 9,5 - - 9 5 - - NNE 1014,6 20 0,0
08.07.2020 00:00:00 10,8 9,4 - - 8 4 - - NE 1014,7 19 0,0
07.07.2020 23:00:00 10,6 8,8 - - 4 2 - - E 1014,7 17 0,0
07.07.2020 22:00:00 10,9 9,0 - - 2 1 - - SSE 1014,7 17 0,0
07.07.2020 21:00:00 11,2 9,2 - - 8 4 - - S 1014,6 20 0,0
07.07.2020 20:00:00 11,5 8,9 - - 8 4 - - S 1014,8 22 0,0
07.07.2020 19:00:00 12,3 9,2 - - 4 2 - - S 1015,3 23 0,0
07.07.2020 18:00:00 12,5 9,6 - - 5 3 - - S 1015,5 19 0,0
07.07.2020 17:00:00 11,9 10,1 - - 13 7 - - SW 1016,5 19 0,0
07.07.2020 16:00:00 10,9 9,8 - - 11 6 - - SW 1017,0 15 0,8
07.07.2020 15:00:00 10,3 9,1 - - 11 6 - - SW 1017,2 3,8 0,8
07.07.2020 14:00:00 10,9 9,4 - - 9 5 - - SW 1017,7 2,6 0,0
07.07.2020 13:00:00 11,3 10,0 - - 9 5 - - SSW 1017,6 18 1,0
07.07.2020 12:00:00 11,8 9,4 - - 18 10 - - SW 1017,8 18 0,0
07.07.2020 11:00:00 12,3 9,4 - - 15 8 - - SW 1018,0 20 0,0
07.07.2020 10:00:00 12,1 9,8 15,4 14,7 16 9 - - WSW 1018,2 17 0,2
07.07.2020 09:00:00 11,6 9,0 - - 18 10 - - WSW 1018,6 11 0,0
07.07.2020 08:00:00 11,5 8,8 - - 16 9 - - WSW 1018,8 14 0,0
07.07.2020 07:00:00 11,6 9,1 - - 11 6 - - WSW 1018,9 17 0,0
07.07.2020 06:00:00 11,2 8,5 - - 11 6 - - W 1019,0 17 0,0
07.07.2020 05:00:00 11,2 8,2 - - 11 6 - - W 1019,3 20 0,0
07.07.2020 04:00:00 11,2 8,3 - - 15 8 - - W 1020,0 14 0,0
07.07.2020 03:00:00 11,5 8,8 - - 18 10 - - W 1020,5 13 0,0
07.07.2020 02:00:00 11,6 9,0 - - 22 12 - - W 1021,0 12 0,0
07.07.2020 01:00:00 11,7 9,5 - - 18 10 - - W 1021,3 11 0,0
07.07.2020 00:00:00 11,4 8,6 - - 26 14 - - WNW 1021,4 10 0,0
06.07.2020 23:00:00 11,6 8,1 - - 26 14 - - WNW 1021,7 12 0,0
06.07.2020 22:00:00 11,8 7,5 - - 26 14 - - WNW 1021,8 11 0,0
06.07.2020 21:00:00 12,0 7,2 - - 28 15 46 25 WNW 1021,9 10 0,0
06.07.2020 20:00:00 12,6 7,6 - - 34 18 - - WNW 1021,5 11 0,0
06.07.2020 19:00:00 12,9 6,9 - - 28 15 - - WNW 1021,6 12 0,0
06.07.2020 18:00:00 13,5 8,4 - - 29 16 - - WNW 1021,4 10 0,0
06.07.2020 17:00:00 13,8 9,4 - - 31 17 - - WNW 1021,3 8 0,0
06.07.2020 16:00:00 14,9 8,9 - - 34 18 50 27 WNW 1020,7 10 0,0
06.07.2020 15:00:00 14,8 8,5 - - 34 18 52 28 WNW 1020,3 - 0,0
06.07.2020 14:00:00 14,2 7,9 - - 35 19 54 29 WNW 1019,6 - 0,0
06.07.2020 13:00:00 14,8 8,9 - - 39 21 54 29 NW 1018,9 - 0,0
06.07.2020 12:00:00 14,7 10,1 - - 37 20 55 30 NW 1018,0 - 0,0
06.07.2020 11:00:00 12,6 8,4 - - 41 22 52 28 WNW 1017,1 7 0,0
06.07.2020 10:00:00 13,0 9,8 15,2 14,7 35 19 48 26 NW 1016,2 9 0,0
06.07.2020 09:00:00 13,4 10,6 - - 39 21 57 31 NW 1015,2 7 0,0
06.07.2020 08:00:00 12,6 10,0 - - 42 23 55 30 NW 1013,8 7 0,0
06.07.2020 07:00:00 11,6 9,4 - - 44 24 63 34 WNW 1012,3 6 0,0
06.07.2020 06:00:00 11,4 9,7 - - 50 27 70 38 WNW 1011,1 6 0,2
06.07.2020 05:00:00 10,9 9,7 - - 46 25 65 35 W 1010,6 6 0,4
06.07.2020 04:00:00 10,8 9,2 - - 44 24 67 36 W 1010,4 5 0,0
06.07.2020 03:00:00 11,3 8,4 - - 48 26 65 35 W 1010,4 9 0,0
06.07.2020 02:00:00 11,3 8,8 - - 48 26 67 36 W 1010,0 6 0,0
06.07.2020 01:00:00 11,3 9,1 - - 46 25 70 38 W 1009,5 9 0,4
06.07.2020 00:00:00 11,7 8,9 - - 42 23 65 35 WNW 1008,8 7 0,0
05.07.2020 23:00:00 11,6 8,3 - - 44 24 70 38 WNW 1007,7 7 0,0
05.07.2020 22:00:00 12,0 8,8 - - 52 28 72 39 WNW 1006,6 6 0,0
05.07.2020 21:00:00 11,9 8,7 - - 52 28 76 41 WNW 1005,4 7 0,0
05.07.2020 20:00:00 12,0 8,9 - - 55 30 76 41 WNW 1004,0 7 0,0
05.07.2020 19:00:00 12,1 10,4 - - 44 24 76 41 W 1003,4 8 0,6
05.07.2020 18:00:00 12,7 9,8 - - 37 20 67 36 WSW 1003,3 11 0,2
05.07.2020 17:00:00 13,0 8,3 - - 37 20 59 32 WSW 1003,7 12 0,0
05.07.2020 16:00:00 14,2 9,0 - - 37 20 54 29 WSW 1003,9 - 0,0
05.07.2020 15:00:00 13,6 10,3 - - 39 21 54 29 SW 1004,0 13 0,0
05.07.2020 14:00:00 14,8 11,9 - - 39 21 59 32 SW 1004,1 - 0,0
05.07.2020 13:00:00 12,9 10,9 - - 41 22 59 32 SW 1004,4 14 1,0
05.07.2020 12:00:00 13,1 9,0 - - 34 18 50 27 WSW 1004,5 14 0,0
05.07.2020 11:00:00 12,3 8,4 - - 31 17 54 29 WSW 1004,7 14 0,0
05.07.2020 10:00:00 11,9 8,1 15,7 14,7 41 22 59 32 W 1004,5 11 0,0
05.07.2020 09:00:00 12,2 8,8 - - 44 24 63 34 W 1003,9 - 0,0
05.07.2020 08:00:00 11,7 9,0 - - 37 20 67 36 W 1003,3 6 0,0
05.07.2020 07:00:00 11,7 8,5 - - 50 27 72 39 W 1001,8 5 0,0
05.07.2020 06:00:00 12,3 9,6 - - 52 28 78 42 W 1000,4 - 0,0
05.07.2020 05:00:00 13,0 10,6 - - 52 28 76 41 W 998,9 - 0,0
05.07.2020 04:00:00 13,5 13,1 - - 48 26 68 37 W 998,8 - 0,0
05.07.2020 03:00:00 13,9 13,5 - - 48 26 80 43 WSW 997,5 - 0,2
05.07.2020 02:00:00 14,0 13,7 - - 50 27 67 36 SW 996,9 - 0,0
05.07.2020 01:00:00 13,6 13,3 - - 44 24 67 36 SW 997,3 - 0,0
05.07.2020 00:00:00 13,6 13,3 - - 39 21 65 35 SSW 997,9 - 0,0
04.07.2020 23:00:00 13,6 13,3 - - 42 23 67 36 SSW 998,6 - 0,6
04.07.2020 22:00:00 13,8 13,4 - - 41 22 57 31 S 999,3 - 1,4
04.07.2020 21:00:00 13,8 13,5 - - 28 15 - - S 1000,8 - 0,2
04.07.2020 20:00:00 13,7 13,3 - - 26 14 - - S 1002,1 - 0,0
04.07.2020 19:00:00 13,8 13,5 - - 26 14 - - S 1003,2 - 0,0
04.07.2020 18:00:00 13,6 13,2 - - 24 13 - - SSW 1004,0 - 0,2
04.07.2020 17:00:00 13,9 13,5 - - 16 9 - - SSW 1004,6 - 0,2
04.07.2020 16:00:00 14,2 13,8 - - 8 4 - - WSW 1004,9 - 0,6
04.07.2020 15:00:00 14,0 13,7 - - 13 7 - - W 1005,2 - 0,6
04.07.2020 14:00:00 14,2 13,8 - - 15 8 - - W 1005,2 - 0,0
04.07.2020 13:00:00 14,8 14,5 - - 13 7 - - WSW 1004,8 - 0,0
04.07.2020 12:00:00 14,4 14,0 - - 15 8 - - WSW 1005,1 - 0,0
04.07.2020 11:00:00 13,9 13,6 - - 13 7 - - SW 1004,7 - 0,2
04.07.2020 10:00:00 13,6 13,3 15,5 14,7 13 7 - - SW 1004,7 0,3 0,0
04.07.2020 09:00:00 13,5 13,2 - - 11 6 - - SW 1004,5 12 0,0
04.07.2020 08:00:00 13,4 13,1 - - 9 5 - - SW 1004,1 6 0,0
04.07.2020 07:00:00 13,2 12,9 - - 9 5 - - SW 1004,1 5 0,2
04.07.2020 06:00:00 13,0 12,7 - - 9 5 - - SW 1004,0 1,2 0,0
04.07.2020 05:00:00 13,0 12,7 - - 8 4 - - S 1003,6 1,2 0,6
04.07.2020 04:00:00 13,1 12,7 - - 8 4 - - SSW 1003,6 - 0,4
04.07.2020 03:00:00 13,0 12,6 - - 8 4 - - S 1003,7 - 1,2
04.07.2020 02:00:00 12,9 12,6 - - 8 4 - - S 1003,9 0,4 1,4
04.07.2020 01:00:00 12,9 12,5 - - 5 3 - - S 1004,3 1,0 0,2
04.07.2020 00:00:00 12,8 12,4 - - 8 4 - - SW 1004,7 1,7 0,2
03.07.2020 23:00:00 12,9 12,6 - - 9 5 - - WSW 1004,9 0,9 0,0
03.07.2020 22:00:00 13,3 12,9 - - 28 15 46 25 SW 1004,9 0,3 0,6
03.07.2020 21:00:00 13,4 13,0 - - 34 18 48 26 SW 1004,9 - 0,0
03.07.2020 20:00:00 13,4 13,0 - - 34 18 54 29 SW 1004,8 1,5 0,0
03.07.2020 19:00:00 13,4 13,0 - - 34 18 54 29 SW 1004,9 2,2 0,0
03.07.2020 18:00:00 13,3 12,9 - - 39 21 55 30 SW 1005,1 4,0 0,0
03.07.2020 17:00:00 13,4 12,9 - - 35 19 55 30 SW 1005,4 3,1 0,0
03.07.2020 16:00:00 13,4 12,9 - - 39 21 55 30 SW 1005,8 5 0,0
03.07.2020 15:00:00 13,4 12,9 - - 39 21 67 36 SW 1005,8 5 0,0
03.07.2020 14:00:00 13,2 12,8 - - 37 20 57 31 SW 1006,2 6 0,2
03.07.2020 13:00:00 13,1 12,7 - - 37 20 54 29 SW 1006,6 2,3 0,6
03.07.2020 12:00:00 12,8 12,4 - - 35 19 55 30 SW 1006,8 1,6 1,0
03.07.2020 11:00:00 12,7 12,3 - - 34 18 54 29 SW 1007,0 1,5 2,6
03.07.2020 10:00:00 12,5 12,1 16,2 14,7 39 21 57 31 SW 1007,4 0,4 3,0
03.07.2020 09:00:00 12,1 11,6 - - 39 21 61 33 SW 1007,8 1,2 1,8
03.07.2020 08:00:00 11,5 11,0 - - 42 23 59 32 SW 1007,8 2,9 0,8
03.07.2020 07:00:00 11,6 11,0 - - 34 18 52 28 S 1008,3 1,9 1,0
03.07.2020 06:00:00 11,3 10,6 - - 35 19 54 29 S 1009,1 5 0,4
03.07.2020 05:00:00 11,0 9,9 - - 26 14 - - SSW 1009,7 7 0,6
03.07.2020 04:00:00 11,2 9,7 - - 22 12 - - SW 1010,5 10 1,2
03.07.2020 03:00:00 11,8 10,3 - - 24 13 - - SW 1011,2 5 0,6
03.07.2020 02:00:00 12,3 10,2 - - 22 12 - - SW 1011,5 13 0,0
03.07.2020 01:00:00 12,4 10,9 - - 16 9 - - SSW 1012,0 14 0,0
03.07.2020 00:00:00 12,4 10,4 - - 22 12 - - SW 1012,5 15 0,0
02.07.2020 23:00:00 12,4 10,9 - - 21 11 - - SW 1012,7 13 0,0
02.07.2020 22:00:00 12,2 10,8 - - 11 6 - - SSW 1013,1 20 0,0
02.07.2020 21:00:00 12,6 10,3 - - 11 6 - - SSW 1013,1 21 0,0
02.07.2020 20:00:00 12,9 10,7 - - 15 8 - - W 1013,0 14 0,0
02.07.2020 19:00:00 14,6 11,2 - - 15 8 - - W 1012,7 15 0,0
02.07.2020 18:00:00 14,1 10,5 - - 16 9 - - W 1012,6 16 0,0
02.07.2020 17:00:00 15,3 11,4 - - 13 7 - - W 1012,4 14 0,0
02.07.2020 16:00:00 14,1 11,4 - - 15 8 - - SW 1012,2 15 0,0
02.07.2020 15:00:00 13,6 11,1 - - 16 9 - - SW 1012,1 18 0,0
02.07.2020 14:00:00 14,5 10,9 - - 18 10 - - SW 1011,8 19 0,0
02.07.2020 13:00:00 13,6 11,2 - - 13 7 - - SSW 1011,4 20 0,0
02.07.2020 12:00:00 14,5 11,6 - - 13 7 - - S 1010,7 20 0,0
02.07.2020 11:00:00 14,3 11,5 - - 5 3 - - NNW 1010,2 20 0,0
02.07.2020 10:00:00 12,8 11,0 16,0 14,7 9 5 - - NW 1009,7 19 0,0
02.07.2020 09:00:00 12,3 11,3 - - 11 6 - - E 1008,9 24 0,0
02.07.2020 08:00:00 11,1 10,2 - - 11 6 - - ENE 1008,3 16 0,0
02.07.2020 07:00:00 10,8 10,0 - - 9 5 - - N 1007,8 11 0,0
02.07.2020 06:00:00 10,2 9,6 - - 5 3 - - ENE 1007,1 18 0,0
02.07.2020 05:00:00 9,5 8,7 - - 13 7 - - N 1006,8 17 0,0
02.07.2020 04:00:00 9,7 8,6 - - 15 8 - - N 1006,7 21 0,0

tt = temperature
td = dewpoint
tt -20cm = temperature -20cm
tt -100cm = temperature -100cm
ff = wind speed
fx = gusts
dd = wind direction
ppp = reduced air pressure
vv = visibility
rr = precipitation

Next stations